Location: Newark
(25.4297°S, 49.2719°W)
Time: 04:05:11
(UTC+00:00)

Hubble Space Telescope - Pass Details

Date: 02 July 2021
Orbit: 535 x 539 km, 28.5° (Epoch: 28 July)

Event Time Altitude Azimuth Distance (km) Brightness Sun altitude
Rises 20:59:32 0° 301° (WNW) 2,667 6.8 -5.1°
Reaches altitude 10° 21:01:51 10° 307° (NW) 1,780 5.0 -5.6°
Maximum altitude 21:05:49 47° 21° (NNE) 708 1.4 -6.4°
Drops below altitude 10° 21:09:48 10° 95° (E) 1,789 2.8 -7.2°
Enters shadow 21:10:11 - 96° (E) 1,934 3.0 -7.3°
